Year,Month,Day,Hour,Minute,Value (Times are PST for temperature in C)
2013,08,15,00,00,18.50
2013,08,15,00,01,18.50
2013,08,15,00,02,18.50
2013,08,15,00,03,18.50
2013,08,15,00,04,18.50
2013,08,15,00,05,18.50
2013,08,15,00,06,18.50
2013,08,15,00,07,18.50
2013,08,15,00,08,18.50
2013,08,15,00,09,18.50
2013,08,15,00,10,18.50
2013,08,15,00,11,18.50
2013,08,15,00,12,18.50
2013,08,15,00,13,18.50
2013,08,15,00,14,18.50
2013,08,15,00,15,18.50
2013,08,15,00,16,18.40
2013,08,15,00,17,18.40
2013,08,15,00,18,18.40
2013,08,15,00,19,18.40
2013,08,15,00,20,18.40
2013,08,15,00,21,18.40
2013,08,15,00,22,18.40
2013,08,15,00,23,18.40
2013,08,15,00,24,18.40
2013,08,15,00,25,18.40
2013,08,15,00,26,18.40
2013,08,15,00,27,18.40
2013,08,15,00,28,18.30
2013,08,15,00,29,18.30
2013,08,15,00,30,18.30
2013,08,15,00,31,18.30
2013,08,15,00,32,18.30
2013,08,15,00,33,18.20
2013,08,15,00,34,18.20
2013,08,15,00,35,18.20
2013,08,15,00,36,18.20
2013,08,15,00,37,18.20
2013,08,15,00,38,18.10
2013,08,15,00,39,18.10
2013,08,15,00,40,18.10
2013,08,15,00,41,18.00
2013,08,15,00,42,18.00
2013,08,15,00,43,18.00
2013,08,15,00,44,17.90
2013,08,15,00,45,17.90
2013,08,15,00,46,17.90
2013,08,15,00,47,17.90
2013,08,15,00,48,17.90
2013,08,15,00,49,17.90
2013,08,15,00,50,17.80
2013,08,15,00,51,17.80
2013,08,15,00,52,17.80
2013,08,15,00,53,17.80
2013,08,15,00,54,17.80
2013,08,15,00,55,17.70
2013,08,15,00,56,17.70
2013,08,15,00,57,17.70
2013,08,15,00,58,17.70
2013,08,15,00,59,17.60
2013,08,15,01,00,17.60
2013,08,15,01,01,17.60
2013,08,15,01,02,17.50
2013,08,15,01,03,17.50
2013,08,15,01,04,17.40
2013,08,15,01,05,17.40
2013,08,15,01,06,17.40
2013,08,15,01,07,17.40
2013,08,15,01,08,17.40
2013,08,15,01,09,17.30
2013,08,15,01,10,17.30
2013,08,15,01,11,17.30
2013,08,15,01,12,17.30
2013,08,15,01,13,17.20
2013,08,15,01,14,17.20
2013,08,15,01,15,17.20
2013,08,15,01,16,17.10
2013,08,15,01,17,17.10
2013,08,15,01,18,17.10
2013,08,15,01,19,17.10
2013,08,15,01,20,17.10
2013,08,15,01,21,17.10
2013,08,15,01,22,17.10
2013,08,15,01,23,17.10
2013,08,15,01,24,17.10
2013,08,15,01,25,17.10
2013,08,15,01,26,17.10
2013,08,15,01,27,17.10
2013,08,15,01,28,17.10
2013,08,15,01,29,17.10
2013,08,15,01,30,17.10
2013,08,15,01,31,17.10
2013,08,15,01,32,17.00
2013,08,15,01,33,17.00
2013,08,15,01,34,17.00
2013,08,15,01,35,17.00
2013,08,15,01,36,17.00
2013,08,15,01,37,17.00
2013,08,15,01,38,17.00
2013,08,15,01,39,17.00
2013,08,15,01,40,17.00
2013,08,15,01,41,16.90
2013,08,15,01,42,16.90
2013,08,15,01,43,16.90
2013,08,15,01,44,16.90
2013,08,15,01,45,16.90
2013,08,15,01,46,16.90
2013,08,15,01,47,16.90
2013,08,15,01,48,16.80
2013,08,15,01,49,16.80
2013,08,15,01,50,16.80
2013,08,15,01,51,16.80
2013,08,15,01,52,16.80
2013,08,15,01,53,16.80
2013,08,15,01,54,16.70
2013,08,15,01,55,16.70
2013,08,15,01,56,16.70
2013,08,15,01,57,16.70
2013,08,15,01,58,16.60
2013,08,15,01,59,16.60
2013,08,15,02,00,16.60
2013,08,15,02,01,16.60
2013,08,15,02,02,16.60
2013,08,15,02,03,16.60
2013,08,15,02,04,16.60
2013,08,15,02,05,16.50
2013,08,15,02,06,16.50
2013,08,15,02,07,16.50
2013,08,15,02,08,16.50
2013,08,15,02,09,16.40
2013,08,15,02,10,16.40
2013,08,15,02,11,16.40
2013,08,15,02,12,16.40
2013,08,15,02,13,16.40
2013,08,15,02,14,16.30
2013,08,15,02,15,16.30
2013,08,15,02,16,16.30
2013,08,15,02,17,16.30
2013,08,15,02,18,16.30
2013,08,15,02,19,16.30
2013,08,15,02,20,16.20
2013,08,15,02,21,16.20
2013,08,15,02,22,16.20
2013,08,15,02,23,16.20
2013,08,15,02,24,16.20
2013,08,15,02,25,16.20
2013,08,15,02,26,16.10
2013,08,15,02,27,16.10
2013,08,15,02,28,16.10
2013,08,15,02,29,16.10
2013,08,15,02,30,16.10
2013,08,15,02,31,16.00
2013,08,15,02,32,16.00
2013,08,15,02,33,16.00
2013,08,15,02,34,16.00
2013,08,15,02,35,15.90
2013,08,15,02,36,15.90
2013,08,15,02,37,15.90
2013,08,15,02,38,15.90
2013,08,15,02,39,15.90
2013,08,15,02,40,15.90
2013,08,15,02,41,15.90
2013,08,15,02,42,15.90
2013,08,15,02,43,15.90
2013,08,15,02,44,15.90
2013,08,15,02,45,15.80
2013,08,15,02,46,15.80
2013,08,15,02,47,15.80
2013,08,15,02,48,15.80
2013,08,15,02,49,15.80
2013,08,15,02,50,15.80
2013,08,15,02,51,15.70
2013,08,15,02,52,15.70
2013,08,15,02,53,15.70
2013,08,15,02,54,15.70
2013,08,15,02,55,15.70
2013,08,15,02,56,15.70
2013,08,15,02,57,15.70
2013,08,15,02,58,15.60
2013,08,15,02,59,15.60
2013,08,15,03,00,15.60
2013,08,15,03,01,15.60
2013,08,15,03,02,15.60
2013,08,15,03,03,15.60
2013,08,15,03,04,15.50
2013,08,15,03,05,15.50
2013,08,15,03,06,15.50
2013,08,15,03,07,15.40
2013,08,15,03,08,15.40
2013,08,15,03,09,15.40
2013,08,15,03,10,15.40
2013,08,15,03,11,15.40
2013,08,15,03,12,15.40
2013,08,15,03,13,15.40
2013,08,15,03,14,15.30
2013,08,15,03,15,15.30
2013,08,15,03,16,15.30
2013,08,15,03,17,15.30
2013,08,15,03,18,15.30
2013,08,15,03,19,15.30
2013,08,15,03,20,15.20
2013,08,15,03,21,15.20
2013,08,15,03,22,15.20
2013,08,15,03,23,15.20
2013,08,15,03,24,15.20
2013,08,15,03,25,15.20
2013,08,15,03,26,15.20
2013,08,15,03,27,15.20
2013,08,15,03,28,15.20
2013,08,15,03,29,15.20
2013,08,15,03,30,15.20
2013,08,15,03,31,15.20
2013,08,15,03,32,15.10
2013,08,15,03,33,15.10
2013,08,15,03,34,15.10
2013,08,15,03,35,15.10
2013,08,15,03,36,15.10
2013,08,15,03,37,15.10
2013,08,15,03,38,15.10
2013,08,15,03,39,15.10
2013,08,15,03,40,15.00
2013,08,15,03,41,15.00
2013,08,15,03,42,15.00
2013,08,15,03,43,15.00
2013,08,15,03,44,15.00
2013,08,15,03,45,15.00
2013,08,15,03,46,15.00
2013,08,15,03,47,15.00
2013,08,15,03,48,15.00
2013,08,15,03,49,15.00
2013,08,15,03,50,15.00
2013,08,15,03,51,15.00
2013,08,15,03,52,15.00
2013,08,15,03,53,15.00
2013,08,15,03,54,15.00
2013,08,15,03,55,15.00
2013,08,15,03,56,14.90
2013,08,15,03,57,14.90
2013,08,15,03,58,14.90
2013,08,15,03,59,14.90
2013,08,15,04,00,15.00
2013,08,15,04,01,15.00
2013,08,15,04,02,15.00
2013,08,15,04,03,15.00
2013,08,15,04,04,15.00
2013,08,15,04,05,15.00
2013,08,15,04,06,15.00
2013,08,15,04,07,15.00
2013,08,15,04,08,15.00
2013,08,15,04,09,15.00
2013,08,15,04,10,15.00
2013,08,15,04,11,15.00
2013,08,15,04,12,15.00
2013,08,15,04,13,15.00
2013,08,15,04,14,15.00
2013,08,15,04,15,15.00
2013,08,15,04,16,15.00
2013,08,15,04,17,15.00
2013,08,15,04,18,15.00
2013,08,15,04,19,15.00
2013,08,15,04,20,15.00
2013,08,15,04,21,15.00
2013,08,15,04,22,15.00
2013,08,15,04,23,15.00
2013,08,15,04,24,15.00
2013,08,15,04,25,14.90
2013,08,15,04,26,14.80
2013,08,15,04,27,14.80
2013,08,15,04,28,14.80
2013,08,15,04,29,14.80
2013,08,15,04,30,14.80
2013,08,15,04,31,14.80
2013,08,15,04,32,14.70
2013,08,15,04,33,14.70
2013,08,15,04,34,14.70
2013,08,15,04,35,14.70
2013,08,15,04,36,14.70
2013,08,15,04,37,14.70
2013,08,15,04,38,14.70
2013,08,15,04,39,14.70
2013,08,15,04,40,14.70
2013,08,15,04,41,14.70
2013,08,15,04,42,14.70
2013,08,15,04,43,14.60
2013,08,15,04,44,14.60
2013,08,15,04,45,14.60
2013,08,15,04,46,14.60
2013,08,15,04,47,14.60
2013,08,15,04,48,14.60
2013,08,15,04,49,14.60
2013,08,15,04,50,14.60
2013,08,15,04,51,14.60
2013,08,15,04,52,14.60
2013,08,15,04,53,14.60
2013,08,15,04,54,14.60
2013,08,15,04,55,14.60
2013,08,15,04,56,14.60
2013,08,15,04,57,14.60
2013,08,15,04,58,14.60
2013,08,15,04,59,14.60
2013,08,15,05,00,14.70
2013,08,15,05,01,14.70
2013,08,15,05,02,14.70
2013,08,15,05,03,14.70
2013,08,15,05,04,14.70
2013,08,15,05,05,14.70
2013,08,15,05,06,14.70
2013,08,15,05,07,14.70
2013,08,15,05,08,14.70
2013,08,15,05,09,14.80
2013,08,15,05,10,14.70
2013,08,15,05,11,14.80
2013,08,15,05,12,14.70
2013,08,15,05,13,14.70
2013,08,15,05,14,14.80
2013,08,15,05,15,14.80
2013,08,15,05,16,14.80
2013,08,15,05,17,14.80
2013,08,15,05,18,14.80
2013,08,15,05,19,14.80
2013,08,15,05,20,14.80
2013,08,15,05,21,14.80
2013,08,15,05,22,14.80
2013,08,15,05,23,14.70
2013,08,15,05,24,14.70
2013,08,15,05,25,14.70
2013,08,15,05,26,14.70
2013,08,15,05,27,14.70
2013,08,15,05,28,14.70
2013,08,15,05,29,14.70
2013,08,15,05,30,14.70
2013,08,15,05,31,14.60
2013,08,15,05,32,14.60
2013,08,15,05,33,14.60
2013,08,15,05,34,14.50
2013,08,15,05,35,14.50
2013,08,15,05,36,14.50
2013,08,15,05,37,14.50
2013,08,15,05,38,14.40
2013,08,15,05,39,14.40
2013,08,15,05,40,14.40
2013,08,15,05,41,14.40
2013,08,15,05,42,14.40
2013,08,15,05,43,14.40
2013,08,15,05,44,14.40
2013,08,15,05,45,14.40
2013,08,15,05,46,14.40
2013,08,15,05,47,14.40
2013,08,15,05,48,14.40
2013,08,15,05,49,14.50
2013,08,15,05,50,14.50
2013,08,15,05,51,14.50
2013,08,15,05,52,14.50
2013,08,15,05,53,14.50
2013,08,15,05,54,14.50
2013,08,15,05,55,14.50
2013,08,15,05,56,14.50
2013,08,15,05,57,14.50
2013,08,15,05,58,14.40
2013,08,15,05,59,14.40
2013,08,15,06,00,14.40
2013,08,15,06,01,14.40
2013,08,15,06,02,14.40
2013,08,15,06,03,14.50
2013,08,15,06,04,14.50
2013,08,15,06,05,14.50
2013,08,15,06,06,14.50
2013,08,15,06,07,14.50
2013,08,15,06,08,14.50
2013,08,15,06,09,14.50
2013,08,15,06,10,14.60
2013,08,15,06,11,14.60
2013,08,15,06,12,14.60
2013,08,15,06,13,14.60
2013,08,15,06,14,14.60
2013,08,15,06,15,14.60
2013,08,15,06,16,14.60
2013,08,15,06,17,14.60
2013,08,15,06,18,14.60
2013,08,15,06,19,14.60
2013,08,15,06,20,14.60
2013,08,15,06,21,14.60
2013,08,15,06,22,14.60
2013,08,15,06,23,14.60
2013,08,15,06,24,14.60
2013,08,15,06,25,14.60
2013,08,15,06,26,14.60
2013,08,15,06,27,14.60
2013,08,15,06,28,14.70
2013,08,15,06,29,14.70
2013,08,15,06,30,14.70
2013,08,15,06,31,14.70
2013,08,15,06,32,14.70
2013,08,15,06,33,14.70
2013,08,15,06,34,14.70
2013,08,15,06,35,14.80
2013,08,15,06,36,14.70
2013,08,15,06,37,14.80
2013,08,15,06,38,14.80
2013,08,15,06,39,14.70
2013,08,15,06,40,14.70
2013,08,15,06,41,14.70
2013,08,15,06,42,14.70
2013,08,15,06,43,14.70
2013,08,15,06,44,14.70
2013,08,15,06,45,14.70
2013,08,15,06,46,14.70
2013,08,15,06,47,14.70
2013,08,15,06,48,14.70
2013,08,15,06,49,14.70
2013,08,15,06,50,14.70
2013,08,15,06,51,14.70
2013,08,15,06,52,14.70
2013,08,15,06,53,14.70
2013,08,15,06,54,14.80
2013,08,15,06,55,14.80
2013,08,15,06,56,14.80
2013,08,15,06,57,14.80
2013,08,15,06,58,14.80
2013,08,15,06,59,14.80
2013,08,15,07,00,14.80
2013,08,15,07,01,14.80
2013,08,15,07,02,14.90
2013,08,15,07,03,14.90
2013,08,15,07,04,14.90
2013,08,15,07,05,15.00
2013,08,15,07,06,15.00
2013,08,15,07,07,15.00
2013,08,15,07,08,15.00
2013,08,15,07,09,15.00
2013,08,15,07,10,15.00
2013,08,15,07,11,15.00
2013,08,15,07,12,15.00
2013,08,15,07,13,15.00
2013,08,15,07,14,15.00
2013,08,15,07,15,15.00
2013,08,15,07,16,15.00
2013,08,15,07,17,15.00
2013,08,15,07,18,15.00
2013,08,15,07,19,15.00
2013,08,15,07,20,15.00
2013,08,15,07,21,15.00
2013,08,15,07,22,15.00
2013,08,15,07,23,15.00
2013,08,15,07,24,15.00
2013,08,15,07,25,15.00
2013,08,15,07,26,15.00
2013,08,15,07,27,15.00
2013,08,15,07,28,15.00
2013,08,15,07,29,15.00
2013,08,15,07,30,15.00
2013,08,15,07,31,15.00
2013,08,15,07,32,15.00
2013,08,15,07,33,15.00
2013,08,15,07,34,15.00
2013,08,15,07,35,15.00
2013,08,15,07,36,15.00
2013,08,15,07,37,15.00
2013,08,15,07,38,15.00
2013,08,15,07,39,15.10
2013,08,15,07,40,15.10
2013,08,15,07,41,15.10
2013,08,15,07,42,15.10
2013,08,15,07,43,15.10
2013,08,15,07,44,15.20
2013,08,15,07,45,15.20
2013,08,15,07,46,15.20
2013,08,15,07,47,15.20
2013,08,15,07,48,15.20
2013,08,15,07,49,15.20
2013,08,15,07,50,15.20
2013,08,15,07,51,15.20
2013,08,15,07,52,15.30
2013,08,15,07,53,15.30
2013,08,15,07,54,15.30
2013,08,15,07,55,15.30
2013,08,15,07,56,15.30
2013,08,15,07,57,15.40
2013,08,15,07,58,15.40
2013,08,15,07,59,15.40
2013,08,15,08,00,15.40
2013,08,15,08,01,15.40
2013,08,15,08,02,15.40
2013,08,15,08,03,15.40
2013,08,15,08,04,15.50
2013,08,15,08,05,15.50
2013,08,15,08,06,15.50
2013,08,15,08,07,15.60
2013,08,15,08,08,15.60
2013,08,15,08,09,15.60
2013,08,15,08,10,15.60
2013,08,15,08,11,15.70
2013,08,15,08,12,15.70
2013,08,15,08,13,15.70
2013,08,15,08,14,15.80
2013,08,15,08,15,15.80
2013,08,15,08,16,15.90
2013,08,15,08,17,15.90
2013,08,15,08,18,16.00
2013,08,15,08,19,16.10
2013,08,15,08,20,16.10
2013,08,15,08,21,16.20
2013,08,15,08,22,16.20
2013,08,15,08,23,16.30
2013,08,15,08,24,16.40
2013,08,15,08,25,16.40
2013,08,15,08,26,16.50
2013,08,15,08,27,16.60
2013,08,15,08,28,16.60
2013,08,15,08,29,16.70
2013,08,15,08,30,16.80
2013,08,15,08,31,16.90
2013,08,15,08,32,17.00
2013,08,15,08,33,17.10
2013,08,15,08,34,17.20
2013,08,15,08,35,17.30
2013,08,15,08,36,17.40
2013,08,15,08,37,17.40
2013,08,15,08,38,17.50
2013,08,15,08,39,17.60
2013,08,15,08,40,17.80
2013,08,15,08,41,17.90
2013,08,15,08,42,18.00
2013,08,15,08,43,18.10
2013,08,15,08,44,18.20
2013,08,15,08,45,18.30
2013,08,15,08,46,18.30
2013,08,15,08,47,18.30
2013,08,15,08,48,18.30
2013,08,15,08,49,18.30
2013,08,15,08,50,18.20
2013,08,15,08,51,18.20
2013,08,15,08,52,18.20
2013,08,15,08,53,18.20
2013,08,15,08,54,18.20
2013,08,15,08,55,18.20
2013,08,15,08,56,18.10
2013,08,15,08,57,18.10
2013,08,15,08,58,18.10
2013,08,15,08,59,18.10
2013,08,15,09,00,18.10
2013,08,15,09,01,18.10
2013,08,15,09,02,18.10
2013,08,15,09,03,18.20
2013,08,15,09,04,18.20
2013,08,15,09,05,18.30
2013,08,15,09,06,18.30
2013,08,15,09,07,18.40
2013,08,15,09,08,18.40
2013,08,15,09,09,18.50
2013,08,15,09,10,18.50
2013,08,15,09,11,18.60
2013,08,15,09,12,18.70
2013,08,15,09,13,18.80
2013,08,15,09,14,18.90
2013,08,15,09,15,18.90
2013,08,15,09,16,19.00
2013,08,15,09,17,19.00
2013,08,15,09,18,19.10
2013,08,15,09,19,19.10
2013,08,15,09,20,19.20
2013,08,15,09,21,19.20
2013,08,15,09,22,19.20
2013,08,15,09,23,19.20
2013,08,15,09,24,19.30
2013,08,15,09,25,19.30
2013,08,15,09,26,19.30
2013,08,15,09,27,19.40
2013,08,15,09,28,19.40
2013,08,15,09,29,19.40
2013,08,15,09,30,19.40
2013,08,15,09,31,19.40
2013,08,15,09,32,19.40
2013,08,15,09,33,19.40
2013,08,15,09,34,19.40
2013,08,15,09,35,19.50
2013,08,15,09,36,19.50
2013,08,15,09,37,19.60
2013,08,15,09,38,19.60
2013,08,15,09,39,19.60
2013,08,15,09,40,19.70
2013,08,15,09,41,19.70
2013,08,15,09,42,19.70
2013,08,15,09,43,19.70
2013,08,15,09,44,19.80
2013,08,15,09,45,19.80
2013,08,15,09,46,19.80
2013,08,15,09,47,19.80
2013,08,15,09,48,19.70
2013,08,15,09,49,19.70
2013,08,15,09,50,19.60
2013,08,15,09,51,19.60
2013,08,15,09,52,19.60
2013,08,15,09,53,19.60
2013,08,15,09,54,19.70
2013,08,15,09,55,19.70
2013,08,15,09,56,19.70
2013,08,15,09,57,19.70
2013,08,15,09,58,19.70
2013,08,15,09,59,19.60
2013,08,15,10,00,19.60
2013,08,15,10,01,19.60
2013,08,15,10,02,19.60
2013,08,15,10,03,19.70
2013,08,15,10,04,19.70
2013,08,15,10,05,19.70
2013,08,15,10,06,19.70
2013,08,15,10,07,19.70
2013,08,15,10,08,19.80
2013,08,15,10,09,19.70
2013,08,15,10,10,19.70
2013,08,15,10,11,19.70
2013,08,15,10,12,19.60
2013,08,15,10,13,19.60
2013,08,15,10,14,19.60
2013,08,15,10,15,19.50
2013,08,15,10,16,19.40
2013,08,15,10,17,19.30
2013,08,15,10,18,19.30
2013,08,15,10,19,19.20
2013,08,15,10,20,19.20
2013,08,15,10,21,19.20
2013,08,15,10,22,19.30
2013,08,15,10,23,19.40
2013,08,15,10,24,19.50
2013,08,15,10,25,19.60
2013,08,15,10,26,19.60
2013,08,15,10,27,19.60
2013,08,15,10,28,19.60
2013,08,15,10,29,19.60
2013,08,15,10,30,19.70
2013,08,15,10,31,19.70
2013,08,15,10,32,19.70
2013,08,15,10,33,19.80
2013,08,15,10,34,19.80
2013,08,15,10,35,19.90
2013,08,15,10,36,19.90
2013,08,15,10,37,20.00
2013,08,15,10,38,20.00
2013,08,15,10,39,20.10
2013,08,15,10,40,20.10
2013,08,15,10,41,20.10
2013,08,15,10,42,20.10
2013,08,15,10,43,20.10
2013,08,15,10,44,20.10
2013,08,15,10,45,20.20
2013,08,15,10,46,20.20
2013,08,15,10,47,20.10
2013,08,15,10,48,20.10
2013,08,15,10,49,20.10
2013,08,15,10,50,20.10
2013,08,15,10,51,20.10
2013,08,15,10,52,20.10
2013,08,15,10,53,20.10
2013,08,15,10,54,20.00
2013,08,15,10,55,20.00
2013,08,15,10,56,19.90
2013,08,15,10,57,19.80
2013,08,15,10,58,19.70
2013,08,15,10,59,19.60
2013,08,15,11,00,19.50
2013,08,15,11,01,19.50
2013,08,15,11,02,19.40
2013,08,15,11,03,19.40
2013,08,15,11,04,19.40
2013,08,15,11,05,19.30
2013,08,15,11,06,19.30
2013,08,15,11,07,19.30
2013,08,15,11,08,19.30
2013,08,15,11,09,19.30
2013,08,15,11,10,19.40
2013,08,15,11,11,19.40
2013,08,15,11,12,19.40
2013,08,15,11,13,19.40
2013,08,15,11,14,19.50
2013,08,15,11,15,19.50
2013,08,15,11,16,19.60
2013,08,15,11,17,19.60
2013,08,15,11,18,19.60
2013,08,15,11,19,19.60
2013,08,15,11,20,19.60
2013,08,15,11,21,19.60
2013,08,15,11,22,19.60
2013,08,15,11,23,19.60
2013,08,15,11,24,19.60
2013,08,15,11,25,19.60
2013,08,15,11,26,19.60
2013,08,15,11,27,19.60
2013,08,15,11,28,19.60
2013,08,15,11,29,19.60
2013,08,15,11,30,19.60
2013,08,15,11,31,19.60
2013,08,15,11,32,19.60
2013,08,15,11,33,19.50
2013,08,15,11,34,19.40
2013,08,15,11,35,19.40
2013,08,15,11,36,19.40
2013,08,15,11,37,19.40
2013,08,15,11,38,19.30
2013,08,15,11,39,19.30
2013,08,15,11,40,19.30
2013,08,15,11,41,19.30
2013,08,15,11,42,19.20
2013,08,15,11,43,19.20
2013,08,15,11,44,19.10
2013,08,15,11,45,19.10
2013,08,15,11,46,19.20
2013,08,15,11,47,19.20
2013,08,15,11,48,19.10
2013,08,15,11,49,19.10
2013,08,15,11,50,19.00
2013,08,15,11,51,18.90
2013,08,15,11,52,18.90
2013,08,15,11,53,18.90
2013,08,15,11,54,18.90
2013,08,15,11,55,18.90
2013,08,15,11,56,18.90
2013,08,15,11,57,18.90
2013,08,15,11,58,18.80
2013,08,15,11,59,18.80
2013,08,15,12,00,18.80
2013,08,15,12,01,18.70
2013,08,15,12,02,18.70
2013,08,15,12,03,18.80
2013,08,15,12,04,18.80
2013,08,15,12,05,18.80
2013,08,15,12,06,18.80
2013,08,15,12,07,18.80
2013,08,15,12,08,18.80
2013,08,15,12,09,18.70
2013,08,15,12,10,18.70
2013,08,15,12,11,18.70
2013,08,15,12,12,18.80
2013,08,15,12,13,18.80
2013,08,15,12,14,18.80
2013,08,15,12,15,18.80
2013,08,15,12,16,18.80
2013,08,15,12,17,18.80
2013,08,15,12,18,18.80
2013,08,15,12,19,18.90
2013,08,15,12,20,18.90
2013,08,15,12,21,19.00
2013,08,15,12,22,19.00
2013,08,15,12,23,19.00
2013,08,15,12,24,19.10
2013,08,15,12,25,19.10
2013,08,15,12,26,19.10
2013,08,15,12,27,19.10
2013,08,15,12,28,19.10
2013,08,15,12,29,19.10
2013,08,15,12,30,19.10
2013,08,15,12,31,19.10
2013,08,15,12,32,19.10
2013,08,15,12,33,19.10
2013,08,15,12,34,19.00
2013,08,15,12,35,19.00
2013,08,15,12,36,19.00
2013,08,15,12,37,19.00
2013,08,15,12,38,19.00
2013,08,15,12,39,19.00
2013,08,15,12,40,18.90
2013,08,15,12,41,19.00
2013,08,15,12,42,19.00
2013,08,15,12,43,19.00
2013,08,15,12,44,19.10
2013,08,15,12,45,19.10
2013,08,15,12,46,19.10
2013,08,15,12,47,19.10
2013,08,15,12,48,19.10
2013,08,15,12,49,19.10
2013,08,15,12,50,19.10
2013,08,15,12,51,19.10
2013,08,15,12,52,19.10
2013,08,15,12,53,19.10
2013,08,15,12,54,19.20
2013,08,15,12,55,19.20
2013,08,15,12,56,19.20
2013,08,15,12,57,19.30
2013,08,15,12,58,19.40
2013,08,15,12,59,19.40
2013,08,15,13,00,19.40
2013,08,15,13,01,19.40
2013,08,15,13,02,19.40
2013,08,15,13,03,19.40
2013,08,15,13,04,19.50
2013,08,15,13,05,19.50
2013,08,15,13,06,19.60
2013,08,15,13,07,19.70
2013,08,15,13,08,19.80
2013,08,15,13,09,19.80
2013,08,15,13,10,19.90
2013,08,15,13,11,20.00
2013,08,15,13,12,20.00
2013,08,15,13,13,20.10
2013,08,15,13,14,20.20
2013,08,15,13,15,20.20
2013,08,15,13,16,20.40
2013,08,15,13,17,20.50
2013,08,15,13,18,20.60
2013,08,15,13,19,20.70
2013,08,15,13,20,20.80
2013,08,15,13,21,20.90
2013,08,15,13,22,21.00
2013,08,15,13,23,21.10
2013,08,15,13,24,21.20
2013,08,15,13,25,21.30
2013,08,15,13,26,21.30
2013,08,15,13,27,21.40
2013,08,15,13,28,21.40
2013,08,15,13,29,21.50
2013,08,15,13,30,21.60
2013,08,15,13,31,21.70
2013,08,15,13,32,21.70
2013,08,15,13,33,21.70
2013,08,15,13,34,21.80
2013,08,15,13,35,21.80
2013,08,15,13,36,21.80
2013,08,15,13,37,21.90
2013,08,15,13,38,21.90
2013,08,15,13,39,21.90
2013,08,15,13,40,21.90
2013,08,15,13,41,21.80
2013,08,15,13,42,21.80
2013,08,15,13,43,21.80
2013,08,15,13,44,21.70
2013,08,15,13,45,21.70
2013,08,15,13,46,21.60
2013,08,15,13,47,21.60
2013,08,15,13,48,21.60
2013,08,15,13,49,21.60
2013,08,15,13,50,21.50
2013,08,15,13,51,21.50
2013,08,15,13,52,21.40
2013,08,15,13,53,21.40
2013,08,15,13,54,21.40
2013,08,15,13,55,21.40
2013,08,15,13,56,21.40
2013,08,15,13,57,21.40
2013,08,15,13,58,21.40
2013,08,15,13,59,21.40
2013,08,15,14,00,21.40
2013,08,15,14,01,21.50
2013,08,15,14,02,21.50
2013,08,15,14,03,21.60
2013,08,15,14,04,21.60
2013,08,15,14,05,21.60
2013,08,15,14,06,21.60
2013,08,15,14,07,21.60
2013,08,15,14,08,21.60
2013,08,15,14,09,21.50
2013,08,15,14,10,21.40
2013,08,15,14,11,21.40
2013,08,15,14,12,21.30
2013,08,15,14,13,21.20
2013,08,15,14,14,21.20
2013,08,15,14,15,21.20
2013,08,15,14,16,21.10
2013,08,15,14,17,21.10
2013,08,15,14,18,21.10
2013,08,15,14,19,21.10
2013,08,15,14,20,21.10
2013,08,15,14,21,21.00
2013,08,15,14,22,21.00
2013,08,15,14,23,21.00
2013,08,15,14,24,21.00
2013,08,15,14,25,21.00
2013,08,15,14,26,21.00
2013,08,15,14,27,21.00
2013,08,15,14,28,21.00
2013,08,15,14,29,21.00
2013,08,15,14,30,21.00
2013,08,15,14,31,21.00
2013,08,15,14,32,21.00
2013,08,15,14,33,21.10
2013,08,15,14,34,21.10
2013,08,15,14,35,21.10
2013,08,15,14,36,21.10
2013,08,15,14,37,21.10
2013,08,15,14,38,21.20
2013,08,15,14,39,21.20
2013,08,15,14,40,21.20
2013,08,15,14,41,21.20
2013,08,15,14,42,21.30
2013,08,15,14,43,21.30
2013,08,15,14,44,21.30
2013,08,15,14,45,21.30
2013,08,15,14,46,21.40
2013,08,15,14,47,21.40
2013,08,15,14,48,21.40
2013,08,15,14,49,21.40
2013,08,15,14,50,21.50
2013,08,15,14,51,21.50
2013,08,15,14,52,21.60
2013,08,15,14,53,21.60
2013,08,15,14,54,21.70
2013,08,15,14,55,21.70
2013,08,15,14,56,21.80
2013,08,15,14,57,21.80
2013,08,15,14,58,21.90
2013,08,15,14,59,22.00
2013,08,15,15,00,22.10
2013,08,15,15,01,22.20
2013,08,15,15,02,22.30
2013,08,15,15,03,22.40
2013,08,15,15,04,22.40
2013,08,15,15,05,22.40
2013,08,15,15,06,22.40
2013,08,15,15,07,22.50
2013,08,15,15,08,22.50
2013,08,15,15,09,22.60
2013,08,15,15,10,22.50
2013,08,15,15,11,22.60
2013,08,15,15,12,22.50
2013,08,15,15,13,22.50
2013,08,15,15,14,22.40
2013,08,15,15,15,22.50
2013,08,15,15,16,22.50
2013,08,15,15,17,22.50
2013,08,15,15,18,22.40
2013,08,15,15,19,22.40
2013,08,15,15,20,22.30
2013,08,15,15,21,22.30
2013,08,15,15,22,22.30
2013,08,15,15,23,22.30
2013,08,15,15,24,22.30
2013,08,15,15,25,22.30
2013,08,15,15,26,22.30
2013,08,15,15,27,22.30
2013,08,15,15,28,22.30
2013,08,15,15,29,22.20
2013,08,15,15,30,22.20
2013,08,15,15,31,22.10
2013,08,15,15,32,22.10
2013,08,15,15,33,22.10
2013,08,15,15,34,22.00
2013,08,15,15,35,22.00
2013,08,15,15,36,22.00
2013,08,15,15,37,22.00
2013,08,15,15,38,22.00
2013,08,15,15,39,22.00
2013,08,15,15,40,22.00
2013,08,15,15,41,22.00
2013,08,15,15,42,22.00
2013,08,15,15,43,22.00
2013,08,15,15,44,22.10
2013,08,15,15,45,22.10
2013,08,15,15,46,22.10
2013,08,15,15,47,22.20
2013,08,15,15,48,22.20
2013,08,15,15,49,22.20
2013,08,15,15,50,22.20
2013,08,15,15,51,22.20
2013,08,15,15,52,22.20
2013,08,15,15,53,22.20
2013,08,15,15,54,22.20
2013,08,15,15,55,22.30
2013,08,15,15,56,22.20
2013,08,15,15,57,22.20
2013,08,15,15,58,22.10
2013,08,15,15,59,22.10
2013,08,15,16,00,22.00
2013,08,15,16,01,21.90
2013,08,15,16,02,21.90
2013,08,15,16,03,21.90
2013,08,15,16,04,21.90
2013,08,15,16,05,21.90
2013,08,15,16,06,21.90
2013,08,15,16,07,21.90
2013,08,15,16,08,21.80
2013,08,15,16,09,21.80
2013,08,15,16,10,21.90
2013,08,15,16,11,21.90
2013,08,15,16,12,21.90
2013,08,15,16,13,21.90
2013,08,15,16,14,22.00
2013,08,15,16,15,22.00
2013,08,15,16,16,22.00
2013,08,15,16,17,22.00
2013,08,15,16,18,22.10
2013,08,15,16,19,22.10
2013,08,15,16,20,22.00
2013,08,15,16,21,22.00
2013,08,15,16,22,22.00
2013,08,15,16,23,22.00
2013,08,15,16,24,22.00
2013,08,15,16,25,21.90
2013,08,15,16,26,21.90
2013,08,15,16,27,21.90
2013,08,15,16,28,21.90
2013,08,15,16,29,21.90
2013,08,15,16,30,21.90
2013,08,15,16,31,21.90
2013,08,15,16,32,21.90
2013,08,15,16,33,21.90
2013,08,15,16,34,21.90
2013,08,15,16,35,21.90
2013,08,15,16,36,21.90
2013,08,15,16,37,21.90
2013,08,15,16,38,21.90
2013,08,15,16,39,21.90
2013,08,15,16,40,21.90
2013,08,15,16,41,21.90
2013,08,15,16,42,21.80
2013,08,15,16,43,21.90
2013,08,15,16,44,21.90
2013,08,15,16,45,21.90
2013,08,15,16,46,21.90
2013,08,15,16,47,21.90
2013,08,15,16,48,21.90
2013,08,15,16,49,21.90
2013,08,15,16,50,21.90
2013,08,15,16,51,21.90
2013,08,15,16,52,21.90
2013,08,15,16,53,21.90
2013,08,15,16,54,21.90
2013,08,15,16,55,21.90
2013,08,15,16,56,21.90
2013,08,15,16,57,21.90
2013,08,15,16,58,21.90
2013,08,15,16,59,21.90
2013,08,15,17,00,21.90
2013,08,15,17,01,21.90
2013,08,15,17,02,21.90
2013,08,15,17,03,21.90
2013,08,15,17,04,21.90
2013,08,15,17,05,21.90
2013,08,15,17,06,21.90
2013,08,15,17,07,21.90
2013,08,15,17,08,21.90
2013,08,15,17,09,21.90
2013,08,15,17,10,21.90
2013,08,15,17,11,21.90
2013,08,15,17,12,21.90
2013,08,15,17,13,21.80
2013,08,15,17,14,21.80
2013,08,15,17,15,21.80
2013,08,15,17,16,21.80
2013,08,15,17,17,21.80
2013,08,15,17,18,21.80
2013,08,15,17,19,21.80